Dewpoint
54 54 54 54 55 55 55 55 55 56 55 56 56 56 55 55 55 50 29 33 38 58 55 39 29 29 24 24 28 27 28 28 26 25 31 41 44 54 55 55 57 56 57 60 64
54 54 54 54 55 55 55 55 55 55 55 55 55 56 55 55 50 37 48 56 61 61 24 21 22 23 21 23 24 23 25 25 25 25 22 22 38 36 48 49 53 54 61 63 65
54 54 54 54 54 55 55 55 55 55 55 55 55 55 56 55 36 36 60 61 59 55 26 20 23 21 20 21 21 22 22 22 22 23 23 17 15 30 41 38 48 51 61 64 65
54 54 54 54 54 54 55 55 55 55 55 55 54 55 56 52 27 27 64 62 62 33 16 17 19 14 15 12 18 16 18 19 14 16 18 15 22 32 43 37 52 53 61 64 64
54 54 54 54 54 54 54 55 55 55 55 55 54 55 51 18 11 58 65 64 39 24 16 20 17 16 13 11 13 13 10 10 9 8 11 10 12 25 38 43 56 59 62 63 63
54 54 54 54 54 54 54 54 55 55 54 55 55 55 40 17 33 54 49 31 26 25 18 20 15 14 14 10 11 11 9 9 8 9 9 8 22 42 35 44 56 61 62 62 62
54 54 54 54 54 54 54 55 55 55 54 54 55 53 31 9 42 46 36 30 29 20 15 18 16 14 14 13 12 10 9 11 12 11 10 15 33 34 35 51 52 58 61 61 62
54 54 54 53 53 54 54 54 54 54 55 57 57 52 20 25 48 44 44 40 39 25 17 23 23 17 15 14 11 10 14 12 13 13 11 23 8 16 47 50 52 54 58 61 61
54 54 54 53 53 53 53 54 54 54 56 57 53 48 25 45 38 38 40 36 34 33 30 17 16 15 13 12 10 13 11 11 11 29 17 13 14 39 53 51 52 55 56 57 59
53 53 53 53 53 53 53 54 56 56 55 54 51 40 33 30 33 34 42 36 26 24 19 15 15 15 13 10 8 9 10 11 12 13 39 38 41 47 52 51 51 52 54 56 56
53 53 53 53 54 53 50 47 31 32 49 25 24 30 31 35 32 23 34 28 26 27 23 21 18 21 19 13 9 10 12 14 14 15 39 41 42 45 51 51 51 51 52 54 55
53 53 53 53 53 52 48 34 31 30 29 27 34 35 36 36 27 20 24 23 25 23 25 24 22 23 20 13 11 12 15 15 22 36 38 38 38 42 45 50 51 53 52 52 53
52 52 52 52 52 48 38 37 39 33 27 22 31 31 30 35 27 24 22 24 23 23 23 23 22 23 19 15 18 18 16 17 18 25 29 30 35 38 40 43 46 52 56 57 57
52 52 52 51 43 38 37 40 39 33 28 22 29 28 34 32 22 26 24 24 24 22 24 22 21 23 18 17 18 18 17 17 19 20 15 34 27 35 39 40 43 51 56 54 57
51 52 51 50 42 38 40 38 36 39 18 27 28 25 21 18 19 21 23 25 23 21 21 22 24 27 27 26 18 19 16 21 21 22 23 28 26 34 38 38 41 48 55 55 56
51 51 51 47 45 42 37 38 36 19 22 25 18 18 19 17 16 22 22 25 25 22 24 23 28 31 30 24 22 23 22 26 28 24 22 31 32 29 34 40 43 46 54 56 57
50 50 48 44 29 35 40 36 19 15 25 19 17 16 15 15 15 21 21 22 21 23 24 26 27 30 33 26 28 25 27 19 18 19 20 33 30 33 38 41 44 47 55 58 60
49 49 48 44 42 41 39 29 16 12 24 24 16 17 18 17 16 19 22 20 24 24 26 23 19 28 31 27 27 27 28 21 17 19 18 31 29 32 39 42 44 46 57 60 60
48 42 43 45 45 43 33 22 13 18 27 25 19 17 20 21 20 21 22 21 23 29 24 27 24 27 29 29 27 26 29 30 29 30 24 28 34 37 39 40 40 41 53 57 60
42 42 42 43 45 42 31 24 22 28 30 26 22 24 24 25 19 22 31 32 30 32 33 32 25 24 30 30 29 31 32 27 28 22 18 23 31 23 36 38 39 40 47 52 54
40 39 42 43 43 38 22 22 27 31 32 26 27 27 27 27 25 30 31 30 30 33 33 31 30 25 18 24 22 27 29 34 33 31 20 18 19 37 38 39 38 40 47 51 50
38 33 40 41 37 36 31 32 35 31 33 25 27 27 28 29 29 31 32 31 36 33 29 36 33 25 22 25 27 31 31 32 24 22 33 31 25 33 37 39 40 41 46 49 52
38 36 43 41 33 31 32 30 32 31 29 28 31 32 33 32 32 33 31 34 36 34 34 38 33 24 23 27 27 28 33 35 37 36 34 24 22 31 35 38 40 43 43 49 54
41 32 38 39 37 34 32 30 29 31 29 30 31 33 34 33 36 34 34 34 36 36 43 45 36 29 20 22 26 26 29 32 29 24 21 22 20 25 32 31 29 36 47 51 53
39 37 38 33 34 36 34 31 29 31 31 31 32 31 34 35 33 33 36 33 34 41 38 38 32 30 27 24 26 27 26 28 28 25 21 18 23 24 26 31 32 35 48 52 53
38 36 37 36 36 34 36 33 29 29 30 30 31 33 33 36 34 34 36 37 33 36 38 38 35 32 29 31 29 28 29 30 30 29 30 29 29 30 33 46 45 44 49 52 53
41 40 37 36 34 33 34 32 31 31 30 33 34 33 33 33 35 37 38 40 39 37 38 38 38 36 28 32 31 29 31 31 30 30 30 27 27 33 41 46 49 49 53 53 54
Lifted_Index
13 13 14 14 14 15 15 15 15 15 15 15 15 15 15 15 13 12 12 13 13 14 14 13 13 12 11 10 9 8 5 4 3 3 3 2 1 -1 -2 -3 -3 -3 -4 -4 -4
13 13 14 14 14 15 15 15 15 15 15 15 15 15 15 14 12 11 12 13 13 13 13 13 12 12 11 10 9 7 5 4 4 4 4 3 2 0 -1 -2 -2 -3 -4 -4 -5
13 14 14 14 15 15 15 15 15 15 15 15 15 15 14 13 10 10 11 11 12 13 13 13 12 11 10 9 8 7 6 6 5 5 5 4 3 2 1 -1 -1 -3 -4 -5 -5
13 14 14 15 15 15 15 15 15 15 15 15 15 15 14 11 9 9 9 10 11 13 13 12 11 10 9 8 8 7 6 7 6 6 5 4 3 2 1 -0 -2 -3 -5 -5 -6
13 13 14 14 15 15 15 14 14 15 15 15 15 14 12 10 9 8 8 9 11 12 12 11 11 10 9 8 8 7 7 6 6 5 4 3 2 1 1 -1 -3 -5 -5 -6 -6
13 13 13 14 14 14 14 14 14 14 15 14 14 13 11 10 9 9 9 10 11 12 11 11 10 10 9 8 8 7 6 6 5 4 3 2 2 1 0 -2 -4 -5 -6 -6 -6
12 12 13 13 14 14 14 13 13 13 14 13 13 12 11 10 9 9 10 10 11 11 10 10 10 9 9 8 8 7 6 5 4 3 3 2 1 1 -0 -2 -4 -5 -6 -6 -6
12 12 12 13 14 13 13 12 11 12 12 12 12 11 10 10 9 10 9 9 10 10 10 10 9 9 8 7 7 6 5 4 4 3 3 2 2 1 -1 -3 -4 -5 -5 -6 -6
12 12 12 13 13 13 11 11 10 10 10 10 10 10 9 9 9 9 9 9 9 9 9 9 9 8 7 6 5 5 4 4 4 3 3 2 1 0 -1 -3 -4 -5 -5 -5 -5
11 11 12 12 12 12 11 10 10 10 9 9 9 9 9 9 9 9 9 8 8 8 8 8 7 7 6 5 4 4 4 3 3 3 2 1 1 -1 -2 -3 -3 -4 -4 -4 -4
11 11 12 12 12 11 10 10 10 9 9 9 9 9 9 9 9 9 9 8 8 7 7 7 6 5 4 4 3 3 3 3 3 2 1 0 -0 -1 -2 -2 -3 -3 -3 -4 -4
11 11 11 11 11 10 9 9 9 9 8 9 9 9 9 9 9 9 8 8 7 7 6 5 5 4 4 3 3 3 2 2 2 2 1 0 -0 -1 -1 -2 -2 -3 -3 -3 -4
11 11 11 11 10 9 9 9 9 9 8 8 8 8 8 8 8 8 8 8 7 6 5 5 4 4 3 3 2 2 2 2 2 2 1 1 -0 -0 -0 -1 -1 -2 -3 -4 -4
11 11 11 11 10 9 8 8 8 8 6 7 8 8 8 8 8 8 8 7 6 6 6 5 4 3 3 2 2 2 2 2 2 2 2 1 0 -0 -0 -1 -1 -2 -3 -3 -3
11 11 11 11 10 8 8 8 8 6 5 6 7 7 7 7 7 7 7 7 6 6 5 4 3 3 3 2 2 2 2 2 2 2 2 1 0 -0 -1 -1 -1 -2 -3 -3 -3
12 11 11 10 10 8 7 7 7 5 4 5 6 6 6 6 7 7 7 7 6 6 5 4 3 3 2 2 2 2 2 2 2 2 1 1 0 -1 -1 -1 -1 -2 -3 -3 -3
12 12 10 10 9 8 7 6 5 4 5 5 6 6 6 6 6 6 6 6 6 5 5 4 3 3 3 2 2 2 2 1 1 1 1 1 -0 -1 -1 -1 -1 -2 -3 -4 -3
12 11 10 9 9 8 7 5 4 4 5 5 5 5 5 6 5 6 6 6 5 5 5 4 4 3 3 3 2 2 2 1 1 1 1 0 -0 -0 -1 -1 -1 -2 -3 -4 -4
11 11 9 9 8 8 6 5 4 5 5 5 5 5 5 5 5 5 5 5 5 5 4 4 4 3 3 3 3 2 2 2 1 1 1 1 0 0 -0 -0 -0 -1 -2 -3 -4
11 9 8 7 8 7 6 5 5 5 5 4 4 4 4 4 5 5 5 4 4 4 4 3 3 3 3 4 3 3 2 2 2 1 1 1 1 1 0 0 0 -0 -2 -2 -3
10 8 7 6 6 6 6 5 5 5 5 5 4 4 4 4 4 4 4 4 4 4 4 3 2 2 3 3 4 3 3 3 3 2 2 2 2 1 1 1 1 0 -1 -2 -2
9 7 6 5 5 6 6 6 6 5 5 5 5 4 4 4 4 4 4 4 3 3 3 3 2 2 2 3 4 4 3 3 3 3 2 2 2 2 2 1 1 0 -0 -1 -1
8 7 6 5 5 5 6 6 6 5 5 5 5 4 4 4 4 3 3 3 3 3 3 3 2 3 3 3 4 4 4 4 4 3 3 3 3 3 3 2 2 1 0 -1 -1
7 7 5 5 5 5 5 6 6 5 5 5 5 4 4 4 4 3 3 3 3 3 3 3 3 3 4 4 4 4 5 5 5 4 4 3 4 4 4 4 4 3 1 -1 -1
7 7 6 5 5 5 5 5 5 5 5 5 4 4 4 4 3 3 3 3 4 4 4 4 4 4 4 4 5 5 5 5 5 5 5 5 5 5 4 4 4 3 1 -1 -2
8 7 6 6 5 5 5 5 5 5 5 4 4 4 4 4 4 4 4 4 4 4 4 4 4 4 4 5 5 5 5 5 5 5 5 5 5 5 4 3 2 2 0 -1 -1
8 8 7 6 6 5 5 5 5 5 5 4 4 4 4 4 4 4 4 4 4 4 4 4 4 4 4 5 5 4 4 4 5 5 5 5 5 5 4 2 1 1 -0 -1 -1